Regional Weather Roundup
Issued by NWS Sioux Falls, SD

Home | Current Version | Previous Version | Text Only | Print | Product List | Glossary On
Versions: 1 2 3 4 5 6 7 8 9 10 11 12 13 14 15 16 17 18 19 20 21 22 23 24 25 26 27 28 29 30 31 32 33 34 35 36 37 38 39 40 41 42 43 44 45 46 47 48 49 50
000
ASUS43 KFSD 242202
RWRFSD

WEATHER ROUNDUP FOR SE SOUTH DAKOTA/SW MINNESOTA/NW IOWA
NATIONAL WEATHER SERVICE SIOUX FALLS SD
500 PM CDT THU MAY 24 2018

NOTE: "FAIR" INDICATES FEW OR NO CLOUDS BELOW 12,000 FEET WITH NO
SIGNIFICANT WEATHER AND OR OBSTRUCTIONS TO VISIBILITY.


SDZ038>040-050-052>070-242300-
SOUTHEAST SOUTH DAKOTA

CITY           SKY/WX    TMP DP  RH WIND       PRES   REMARKS
BROOKINGS      MOSUNNY   87  63  44 SW17G26   29.86F
CHAMBERLAIN    PTSUNNY   82  69  64 S15       29.85F
HURON          CLOUDY    84  64  50 SW14G26   29.83F
MADISON        FAIR      82  66  57 SW23G33   29.88F
MITCHELL       CLOUDY    83  66  56 SW13G21   29.85F
SIOUX FALLS    CLOUDY    81  62  52 S17G29    29.88F
WINNER         FAIR      83  67  58 S20G25    29.85F
YANKTON        LGT RAIN  86  65  49 SW6       29.88F
$$

MNZ071-072-080-081-089-090-097-098-242300-
SOUTHWEST MINNESOTA

CITY           SKY/WX    TMP DP  RH WIND       PRES   REMARKS
FAIRMONT       MOSUNNY   89  61  38 SW21      29.90F
JACKSON        CLOUDY    88  57  35 S20       29.93S
LUVERNE        CLOUDY    81  59  47 S17       29.91F
MARSHALL       CLOUDY    90  62  39 SW20      29.85S
MONTEVIDEO     MOSUNNY   90  66  45 S10G18    29.83F
PIPESTONE      CLOUDY    86  63  45 SW21G29   29.90S
REDWOOD FALLS  CLOUDY    78  69  73 N9        29.83F THUNDER
TRACY          SUNNY     91  60  35 SW23G29   29.86F
WINDOM         MOSUNNY   88  55  33 S17G26    29.88F
WORTHINGTON      N/A     86  58  38 S16       29.92R
$$

IAZ001>003-012>014-020>022-031-032-NEZ013-014-SDZ071-242300-
NORTHWEST IOWA

CITY           SKY/WX    TMP DP  RH WIND       PRES   REMARKS
CHEROKEE       SUNNY     87  58  38 SW14      29.91F
DENISON        MOSUNNY   88  64  45 S15G22    29.94F
ESTHERVILLE    MOSUNNY   87  61  41 S22G37    29.91F
ORANGE CITY    SUNNY     90  61  37 S16G28    29.91S
SHELDON        CLOUDY    88  57  35 SW18G25   29.90S
SIOUX CITY     CLOUDY    91  60  35 S21G30    29.88F
SPENCER        SUNNY     90  60  36 S18G31    29.91F
STORM LAKE     SUNNY     90  57  33 SW22G29   29.93S
$$

ABBREVIATIONS USED IN REMARKS
   TC - TEMPERATURE IN CELSIUS
  WCI - WIND CHILL INDEX
   HX - HEAT INDEX
  VSB - VISIBILITY





USA.gov is the U.S. government's official web portal to all federal, state and local government web resources and services.